Weather History for KISN - October, 2013

Change the Weather History Date:

Monday, October 28, 2013

  Actual Average Record
Temperature  
Mean Temperature 27 °F 38 °F  
Max Temperature 29 °F 50 °F 80 °F (1937)
Min Temperature 24 °F 25 °F 2 °F (1925)
Degree Days  
Heating Degree Days 38 28  
Month to date heating degree days 639 597  
Since 1 July heating degree days 825 943  
Cooling Degree Days 0 0  
Month to date cooling degree days 0 0  
Year to date cooling degree days 405 455  
Moisture  
Dew Point 16 °F    
Average Humidity 66    
Maximum Humidity 74    
Minimum Humidity 58    
Precipitation  
Precipitation 0.02 in 0.03 in 0.21 in (1929)
Month to date precipitation 2.05 0.84  
Year to date precipitation 19.84 13.02  
Sea Level Pressure  
Sea Level Pressure 30.54 in    
Wind  
Wind Speed 9 mph (East)    
Max Wind Speed 18 mph    
Max Gust Speed 22 mph    
Visibility 10 miles    
Events      
T = Trace of Precipitation, MM = Missing Value Source: NWS Daily Summary

Daily Weather History Graph

Daily Weather History Graph

Search for Another Location

Airport or City:

Trip Planner

Search our weather history database for the weather conditions in past years. The results will help you decide how hot, cold, wet, or windy it might be!

Date:

Astronomy

Oct. 28, 2013 Rise Set
Actual Time 8:34 AM CDT 6:41 PM CDT
Civil Twilight 8:01 AM CDT 7:13 PM CDT
Nautical Twilight 7:25 AM CDT 7:50 PM CDT
Astronomical Twilight 6:49 AM CDT 8:26 PM CDT
Moon 2:02 AM CDT (10/28) 3:49 PM CDT (10/28)
Length of Visible Light 11h 12m
Length of Day
10h 07m
Waning Crescent, 34% of the Moon is Illuminated
Oct 28
Waning Crescent
Nov 3
New
Nov 9
First Quarter
Nov 17
Full
Nov 25
Last Quarter

Hourly Weather History & Observations

Time (CDT) Temp. Windchill Dew Point Humidity Pressure Visibility Wind Dir Wind Speed Gust Speed Precip Events Conditions
12:52 AM 25.0 °F 11.7 °F 14.0 °F 63% 30.50 in 10.0 mi ENE 17.3 mph 21.9 mph N/A   Overcast
1:52 AM 24.1 °F 11.5 °F 14.0 °F 65% 30.53 in 10.0 mi ENE 15.0 mph - N/A   Overcast
2:52 AM 24.1 °F 13.1 °F 14.0 °F 65% 30.55 in 10.0 mi ENE 11.5 mph - N/A   Overcast
3:20 AM 24.8 °F 14.6 °F 14.0 °F 64% 30.47 in 10.0 mi ENE 10.4 mph - N/A   Overcast
3:52 AM 24.1 °F 14.4 °F 14.0 °F 65% 30.55 in 10.0 mi ENE 9.2 mph - N/A   Overcast
4:52 AM 24.1 °F 14.4 °F 14.0 °F 65% 30.55 in 10.0 mi ENE 9.2 mph - N/A   Overcast
5:52 AM 24.1 °F 15.2 °F 14.0 °F 65% 30.56 in 10.0 mi East 8.1 mph - N/A   Overcast
6:52 AM 24.1 °F 16.0 °F 14.0 °F 65% 30.58 in 10.0 mi ENE 6.9 mph - N/A   Overcast
7:52 AM 24.1 °F 16.0 °F 15.1 °F 69% 30.58 in 10.0 mi ENE 6.9 mph - N/A   Overcast
8:52 AM 24.1 °F 14.4 °F 15.1 °F 69% 30.58 in 10.0 mi East 9.2 mph - N/A   Overcast
9:52 AM 24.1 °F 13.1 °F 15.1 °F 69% 30.61 in 10.0 mi East 11.5 mph - N/A   Overcast
10:52 AM 25.0 °F 14.8 °F 15.1 °F 66% 30.62 in 10.0 mi ENE 10.4 mph - N/A   Overcast
11:52 AM 25.0 °F 14.8 °F 15.1 °F 66% 30.63 in 10.0 mi ENE 10.4 mph - N/A   Overcast
12:52 PM 26.1 °F 15.6 °F 16.0 °F 66% 30.61 in 10.0 mi East 11.5 mph - N/A   Overcast
1:52 PM 27.0 °F 16.1 °F 15.1 °F 61% 30.59 in 10.0 mi East 12.7 mph - N/A   Overcast
2:04 PM 26.6 °F 16.8 °F 15.8 °F 64% 30.48 in 10.0 mi East 10.4 mph - N/A   Overcast
2:20 PM 28.4 °F 18.5 °F 15.8 °F 59% 30.47 in 10.0 mi East 11.5 mph - N/A   Overcast
2:52 PM 27.0 °F 17.3 °F 16.0 °F 63% 30.56 in 10.0 mi East 10.4 mph 19.6 mph N/A   Overcast
3:52 PM 28.9 °F 21.1 °F 16.0 °F 58% 30.54 in 10.0 mi East 8.1 mph - N/A   Overcast
4:52 PM 28.0 °F 20.0 °F 16.0 °F 61% 30.54 in 10.0 mi ESE 8.1 mph - N/A   Overcast
5:52 PM 28.0 °F 19.3 °F 17.1 °F 63% 30.53 in 10.0 mi SE 9.2 mph - N/A   Overcast
6:52 PM 28.0 °F 20.0 °F 17.1 °F 63% 30.52 in 10.0 mi East 8.1 mph - N/A   Overcast
7:40 PM 26.6 °F 18.2 °F 17.6 °F 69% 30.41 in 10.0 mi East 8.1 mph - N/A   Mostly Cloudy
7:52 PM 27.0 °F 19.5 °F 17.1 °F 66% 30.51 in 10.0 mi East 6.9 mph - N/A   Partly Cloudy
8:52 PM 27.0 °F 21.6 °F 17.1 °F 66% 30.50 in 10.0 mi East 4.6 mph - N/A   Partly Cloudy
9:52 PM 25.0 °F 20.7 °F 17.1 °F 72% 30.49 in 10.0 mi ENE 3.5 mph - N/A   Clear
10:52 PM 26.1 °F 19.4 °F 17.1 °F 69% 30.49 in 10.0 mi East 5.8 mph - N/A   Overcast
11:52 PM 26.1 °F 18.4 °F 18.0 °F 71% 30.50 in 10.0 mi East 6.9 mph - N/A   Overcast